EJU95NR LFBD-EBBR

Flight info

Callsign EJU95NR
Flight time 1h 12m
Altitude 34000
Route CNA DCT ADABI DCT BOKNO DCT DEVRO DCT VANAD DCT PIWIZ DCT VADOM DCT BAMES DCT PODEM DCT BAZOS DCT BELDI DCT VEKIN/N0380F240 Z173 ARVOL
Aircraft A320/M-SDE3FGHIRWY/LB1

Departure

Time 2026-05-07 18:22
Airport Bordeaux–Mérignac Airport (LFBD)

Arrival

Time 2026-05-07 19:35
Airport Brussels Airport (EBBR)
Time Latitude Longitude Altitude Speed Heading
2026-05-07 17:57 44.82891 -0.70075 165 ft 0 kts 53°
2026-05-07 17:59 44.82892 -0.70075 165 ft 0 kts 53°
2026-05-07 18:14 44.82886 -0.70086 164 ft 4 kts 53°
2026-05-07 18:15 44.82870 -0.70116 165 ft 4 kts 52°
2026-05-07 18:15 44.82854 -0.70147 165 ft 4 kts 60°
2026-05-07 18:15 44.82845 -0.70180 165 ft 3 kts 99°
2026-05-07 18:15 44.82846 -0.70186 165 ft 0 kts 106°
2026-05-07 18:17 44.82845 -0.70185 165 ft 0 kts 111°
2026-05-07 18:18 44.82825 -0.70171 164 ft 6 kts 167°
2026-05-07 18:18 44.82796 -0.70227 164 ft 11 kts 270°
2026-05-07 18:18 44.82821 -0.70357 164 ft 17 kts 288°
2026-05-07 18:18 44.82859 -0.70541 164 ft 23 kts 287°
2026-05-07 18:19 44.82912 -0.70772 165 ft 25 kts 286°
2026-05-07 18:19 44.82939 -0.70962 164 ft 17 kts 249°
2026-05-07 18:19 44.82861 -0.71087 161 ft 18 kts 226°
2026-05-07 18:19 44.82771 -0.71229 160 ft 21 kts 227°
2026-05-07 18:20 44.82673 -0.71372 163 ft 21 kts 226°
2026-05-07 18:20 44.82567 -0.71513 165 ft 22 kts 223°
2026-05-07 18:20 44.82456 -0.71663 165 ft 23 kts 224°
2026-05-07 18:20 44.82333 -0.71833 163 ft 26 kts 224°
2026-05-07 18:21 44.82200 -0.72025 162 ft 28 kts 225°
2026-05-07 18:21 44.82075 -0.72243 162 ft 30 kts 251°
2026-05-07 18:21 44.82139 -0.72488 164 ft 23 kts 324°
2026-05-07 18:21 44.82243 -0.72425 163 ft 18 kts 46°
2026-05-07 18:22 44.82342 -0.72283 162 ft 28 kts 45°
2026-05-07 18:22 44.82514 -0.72034 165 ft 79 kts 45°
2026-05-07 18:22 44.83298 -0.70889 215 ft 153 kts 49°
2026-05-07 18:22 44.84025 -0.69864 948 ft 146 kts 48°
2026-05-07 18:23 44.84728 -0.68842 1651 ft 144 kts 49°
2026-05-07 18:23 44.85415 -0.67806 2358 ft 144 kts 49°
2026-05-07 18:23 44.86149 -0.66742 2833 ft 162 kts 48°
2026-05-07 18:23 44.86995 -0.65539 3200 ft 184 kts 47°
2026-05-07 18:24 44.87950 -0.64178 3540 ft 206 kts 47°
2026-05-07 18:24 44.89025 -0.62645 3917 ft 232 kts 47°
2026-05-07 18:24 44.90202 -0.60966 4416 ft 256 kts 47°
2026-05-07 18:24 44.91500 -0.59113 5243 ft 266 kts 46°
2026-05-07 18:25 44.92961 -0.57461 6139 ft 273 kts 30°
2026-05-07 18:25 44.94699 -0.56417 7022 ft 278 kts 14°
2026-05-07 18:25 44.96618 -0.56044 7918 ft 281 kts
2026-05-07 18:25 44.98588 -0.55937 8845 ft 285 kts
2026-05-07 18:26 45.00584 -0.55823 9798 ft 289 kts
2026-05-07 18:26 45.02626 -0.55705 10393 ft 305 kts
2026-05-07 18:26 45.04833 -0.55580 10731 ft 328 kts
2026-05-07 18:26 45.07159 -0.55448 11350 ft 339 kts
2026-05-07 18:27 45.09536 -0.55310 12110 ft 345 kts
2026-05-07 18:27 45.11955 -0.55171 12876 ft 351 kts
2026-05-07 18:27 45.14400 -0.54922 13666 ft 356 kts
2026-05-07 18:27 45.16832 -0.54072 14296 ft 363 kts 17°
2026-05-07 18:28 45.17368 -0.53822 14445 ft 364 kts 17°
2026-05-07 18:28 45.19792 -0.52691 15141 ft 369 kts 17°
2026-05-07 18:28 45.22277 -0.51535 15841 ft 373 kts 17°
2026-05-07 18:28 45.24751 -0.50389 16541 ft 377 kts 16°
2026-05-07 18:29 45.27262 -0.49224 17224 ft 381 kts 16°
2026-05-07 18:29 45.29763 -0.48061 17901 ft 385 kts 16°
2026-05-07 18:29 45.32321 -0.46873 18532 ft 389 kts 16°
2026-05-07 18:29 45.34907 -0.45678 19119 ft 392 kts 16°
2026-05-07 18:30 45.37514 -0.44473 19719 ft 396 kts 16°
2026-05-07 18:30 45.40144 -0.43252 20287 ft 400 kts 17°
2026-05-07 18:30 45.42797 -0.42014 20849 ft 403 kts 17°
2026-05-07 18:30 45.45471 -0.40758 21413 ft 406 kts 17°
2026-05-07 18:31 45.48168 -0.39490 21971 ft 410 kts 17°
2026-05-07 18:31 45.50885 -0.38217 22498 ft 413 kts 17°
2026-05-07 18:31 45.53630 -0.36936 23050 ft 417 kts 17°
2026-05-07 18:31 45.56399 -0.35639 23567 ft 420 kts 17°
2026-05-07 18:32 45.59184 -0.34335 24006 ft 423 kts 17°
2026-05-07 18:32 45.61990 -0.33024 24442 ft 426 kts 17°
2026-05-07 18:32 45.64812 -0.31649 24863 ft 430 kts 20°
2026-05-07 18:32 45.67509 -0.29745 25272 ft 434 kts 30°
2026-05-07 18:33 45.70060 -0.27406 25670 ft 437 kts 32°
2026-05-07 18:33 45.72624 -0.25041 26103 ft 440 kts 32°
2026-05-07 18:33 45.75211 -0.22658 26516 ft 443 kts 32°
2026-05-07 18:33 45.77820 -0.20262 26912 ft 446 kts 32°
2026-05-07 18:34 45.80444 -0.17855 27308 ft 449 kts 32°
2026-05-07 18:34 45.83077 -0.15435 27709 ft 452 kts 32°
2026-05-07 18:34 45.85738 -0.12981 28102 ft 455 kts 32°
2026-05-07 18:34 45.88401 -0.10518 28486 ft 458 kts 32°
2026-05-07 18:35 45.91053 -0.08059 28851 ft 461 kts 32°
2026-05-07 18:35 45.93754 -0.05553 29218 ft 464 kts 32°
2026-05-07 18:35 45.96473 -0.03031 29584 ft 467 kts 32°
2026-05-07 18:35 45.99213 -0.00488 29940 ft 469 kts 32°
2026-05-07 18:36 46.01960 0.02065 30254 ft 471 kts 32°
2026-05-07 18:36 46.04717 0.04635 30543 ft 474 kts 32°
2026-05-07 18:36 46.07487 0.07222 30831 ft 476 kts 32°
2026-05-07 18:36 46.10281 0.09828 31112 ft 478 kts 32°
2026-05-07 18:37 46.13079 0.12439 31386 ft 481 kts 32°
2026-05-07 18:37 46.15895 0.15072 31688 ft 482 kts 32°
2026-05-07 18:37 46.18697 0.17697 32105 ft 481 kts 32°
2026-05-07 18:37 46.21494 0.20323 32498 ft 480 kts 32°
2026-05-07 18:38 46.24310 0.22970 32888 ft 480 kts 32°
2026-05-07 18:38 46.27070 0.25564 33267 ft 479 kts 32°
2026-05-07 18:38 46.29862 0.28195 33647 ft 479 kts 32°
2026-05-07 18:38 46.32651 0.30829 33922 ft 480 kts 32°
2026-05-07 18:39 46.35431 0.33457 33973 ft 473 kts 32°
2026-05-07 18:39 46.40893 0.38629 33983 ft 468 kts 32°
2026-05-07 18:40 46.46337 0.43788 33981 ft 468 kts 32°
2026-05-07 18:40 46.51788 0.48963 33977 ft 468 kts 32°
2026-05-07 18:41 46.57531 0.53317 33980 ft 465 kts 17°
2026-05-07 18:41 46.63775 0.55582 33977 ft 462 kts 10°
2026-05-07 18:42 46.70044 0.57646 33963 ft 462 kts 10°
2026-05-07 18:42 46.76310 0.59726 33963 ft 462 kts 10°
2026-05-07 18:43 46.82578 0.61806 33966 ft 462 kts 10°
2026-05-07 18:43 46.88843 0.63894 33967 ft 462 kts 10°
2026-05-07 18:44 46.95102 0.65984 33971 ft 462 kts 10°
2026-05-07 18:44 47.01366 0.68061 33980 ft 462 kts 10°
2026-05-07 18:45 47.07682 0.69488 33974 ft 458 kts
2026-05-07 18:45 47.14036 0.70129 33978 ft 458 kts
2026-05-07 18:46 47.20395 0.70789 33989 ft 458 kts
2026-05-07 18:46 47.26743 0.71461 33991 ft 457 kts
2026-05-07 18:47 47.33080 0.72131 33991 ft 457 kts
2026-05-07 18:47 47.39421 0.72791 33997 ft 457 kts
2026-05-07 18:48 47.45757 0.73457 33996 ft 456 kts
2026-05-07 18:48 47.50986 0.74597 33991 ft 460 kts 13°
2026-05-07 18:49 47.58074 0.78043 33989 ft 461 kts 15°
2026-05-07 18:49 47.63171 0.80551 33990 ft 461 kts 15°
2026-05-07 18:50 47.69265 0.83551 33985 ft 461 kts 15°
2026-05-07 18:50 47.75340 0.86557 33980 ft 460 kts 15°
2026-05-07 18:51 47.81412 0.89567 34000 ft 460 kts 15°
2026-05-07 18:51 47.87479 0.92591 34002 ft 459 kts 16°
2026-05-07 18:52 47.93518 0.95647 33999 ft 459 kts 16°
2026-05-07 18:52 47.99521 0.98701 33996 ft 458 kts 16°
2026-05-07 18:53 48.05555 1.01767 34005 ft 458 kts 16°
2026-05-07 18:53 48.11577 1.04832 34003 ft 457 kts 16°
2026-05-07 18:54 48.17597 1.07899 34009 ft 457 kts 16°
2026-05-07 18:54 48.23618 1.10983 34017 ft 457 kts 17°
2026-05-07 18:55 48.29628 1.14054 34021 ft 456 kts 16°
2026-05-07 18:55 48.35621 1.17104 34022 ft 455 kts 16°
2026-05-07 18:56 48.41615 1.20168 34021 ft 455 kts 17°
2026-05-07 18:56 48.47602 1.23248 34034 ft 454 kts 17°
2026-05-07 18:57 48.53584 1.26325 34031 ft 454 kts 17°
2026-05-07 18:57 48.59560 1.29370 34029 ft 453 kts 16°
2026-05-07 18:58 48.65540 1.32371 34033 ft 452 kts 16°
2026-05-07 18:58 48.71493 1.35366 34036 ft 451 kts 17°
2026-05-07 18:59 48.77433 1.38375 34033 ft 449 kts 17°
2026-05-07 18:59 48.83367 1.41383 34029 ft 449 kts 17°
2026-05-07 19:00 48.89288 1.44389 34024 ft 449 kts 17°
2026-05-07 19:00 48.95205 1.47402 34015 ft 449 kts 17°
2026-05-07 19:01 49.01251 1.49504 34015 ft 446 kts 10°
2026-05-07 19:01 49.04194 1.51052 34014 ft 450 kts 26°
2026-05-07 19:01 49.06784 1.53713 34020 ft 451 kts 38°
2026-05-07 19:02 49.11652 1.59784 34022 ft 452 kts 39°
2026-05-07 19:02 49.16486 1.65922 34022 ft 452 kts 39°
2026-05-07 19:03 49.21333 1.72074 34024 ft 453 kts 38°
2026-05-07 19:03 49.26191 1.78213 34026 ft 453 kts 38°
2026-05-07 19:04 49.31052 1.84349 34041 ft 453 kts 38°
2026-05-07 19:04 49.35902 1.90501 34056 ft 452 kts 38°
2026-05-07 19:05 49.40732 1.96654 34056 ft 452 kts 38°
2026-05-07 19:05 49.45562 2.02826 34055 ft 451 kts 38°
2026-05-07 19:06 49.50384 2.09010 34053 ft 451 kts 39°
2026-05-07 19:06 49.57616 2.18311 34060 ft 451 kts 39°
2026-05-07 19:07 49.62428 2.24513 34059 ft 451 kts 39°
2026-05-07 19:07 49.67235 2.30725 34056 ft 451 kts 38°
2026-05-07 19:08 49.72036 2.36958 34061 ft 451 kts 39°
2026-05-07 19:08 49.76836 2.43213 34071 ft 451 kts 39°
2026-05-07 19:09 49.81635 2.49463 34070 ft 451 kts 39°
2026-05-07 19:09 49.86436 2.55727 34071 ft 451 kts 39°
2026-05-07 19:10 49.91224 2.61994 34070 ft 450 kts 39°
2026-05-07 19:10 49.96005 2.68281 34061 ft 450 kts 39°
2026-05-07 19:11 49.98390 2.71427 33795 ft 448 kts 39°
2026-05-07 19:11 50.00766 2.74566 32994 ft 449 kts 39°
2026-05-07 19:11 50.03141 2.77707 32305 ft 447 kts 39°
2026-05-07 19:11 50.05500 2.80831 31747 ft 443 kts 39°
2026-05-07 19:12 50.07836 2.83927 31227 ft 439 kts 39°
2026-05-07 19:12 50.10152 2.86997 30692 ft 435 kts 39°
2026-05-07 19:12 50.12452 2.90044 30168 ft 432 kts 39°
2026-05-07 19:12 50.14732 2.93070 29567 ft 428 kts 39°
2026-05-07 19:13 50.16982 2.96062 28995 ft 424 kts 39°
2026-05-07 19:13 50.19217 2.99040 28410 ft 420 kts 39°
2026-05-07 19:13 50.21433 3.01995 27851 ft 417 kts 39°
2026-05-07 19:13 50.23620 3.04920 27293 ft 413 kts 39°
2026-05-07 19:14 50.25794 3.07831 26746 ft 410 kts 39°
2026-05-07 19:14 50.27950 3.10720 26199 ft 406 kts 39°
2026-05-07 19:14 50.30086 3.13584 25680 ft 403 kts 39°
2026-05-07 19:14 50.32182 3.16392 25171 ft 400 kts 39°
2026-05-07 19:15 50.34310 3.19247 24654 ft 397 kts 39°
2026-05-07 19:15 50.36370 3.22025 24158 ft 394 kts 39°
2026-05-07 19:15 50.38464 3.24854 23663 ft 391 kts 39°
2026-05-07 19:15 50.40517 3.27638 23106 ft 388 kts 40°
2026-05-07 19:16 50.42494 3.30497 22584 ft 385 kts 43°
2026-05-07 19:16 50.44392 3.33432 22151 ft 382 kts 44°
2026-05-07 19:16 50.46239 3.36447 22069 ft 387 kts 47°
2026-05-07 19:16 50.48085 3.39673 22084 ft 407 kts 47°
2026-05-07 19:17 50.50009 3.43056 22081 ft 420 kts 47°
2026-05-07 19:17 50.51960 3.46492 22084 ft 423 kts 47°
2026-05-07 19:17 50.53920 3.49946 22081 ft 424 kts 47°
2026-05-07 19:17 50.55883 3.53407 22058 ft 423 kts 47°
2026-05-07 19:18 50.57825 3.56836 21484 ft 418 kts 47°
2026-05-07 19:18 50.59753 3.60238 20865 ft 415 kts 47°
2026-05-07 19:18 50.61666 3.63614 20265 ft 411 kts 47°
2026-05-07 19:18 50.63557 3.66951 19698 ft 407 kts 47°
2026-05-07 19:19 50.65439 3.70271 19138 ft 403 kts 47°
2026-05-07 19:19 50.67297 3.73548 18594 ft 400 kts 47°
2026-05-07 19:19 50.69143 3.76803 18015 ft 396 kts 47°
2026-05-07 19:19 50.70884 3.79869 17458 ft 393 kts 47°
2026-05-07 19:20 50.72762 3.83170 16875 ft 389 kts 47°
2026-05-07 19:20 50.74568 3.86340 16326 ft 386 kts 47°
2026-05-07 19:20 50.76355 3.89472 15796 ft 383 kts 47°
2026-05-07 19:20 50.78135 3.92586 15272 ft 380 kts 47°
2026-05-07 19:21 50.79899 3.95667 14759 ft 377 kts 47°
2026-05-07 19:21 50.81653 3.98724 14259 ft 374 kts 47°
2026-05-07 19:21 50.83398 4.01756 13748 ft 371 kts 47°
2026-05-07 19:21 50.85131 4.04764 13189 ft 368 kts 47°
2026-05-07 19:22 50.86844 4.07742 12636 ft 365 kts 47°
2026-05-07 19:22 50.88542 4.10697 12081 ft 361 kts 47°
2026-05-07 19:22 50.90224 4.13628 11526 ft 358 kts 47°
2026-05-07 19:22 50.91892 4.16537 10975 ft 355 kts 47°
2026-05-07 19:23 50.93543 4.19421 10432 ft 351 kts 47°
2026-05-07 19:23 50.95167 4.22261 10129 ft 342 kts 47°
2026-05-07 19:23 50.96727 4.24991 10004 ft 327 kts 47°
2026-05-07 19:23 50.98222 4.27612 9867 ft 314 kts 47°
2026-05-07 19:24 50.99599 4.30204 9736 ft 301 kts 58°
2026-05-07 19:24 51.00425 4.33182 9520 ft 292 kts 71°
2026-05-07 19:24 51.01047 4.36187 9171 ft 289 kts 72°
2026-05-07 19:24 51.01657 4.39218 8793 ft 286 kts 72°
2026-05-07 19:25 51.02260 4.42221 8414 ft 284 kts 72°
2026-05-07 19:25 51.02858 4.45197 8107 ft 281 kts 72°
2026-05-07 19:25 51.03453 4.48153 8079 ft 282 kts 72°
2026-05-07 19:25 51.04050 4.51119 8082 ft 282 kts 72°
2026-05-07 19:26 51.04645 4.54074 7742 ft 279 kts 73°
2026-05-07 19:26 51.05237 4.57007 7336 ft 278 kts 73°
2026-05-07 19:26 51.05826 4.59921 6950 ft 276 kts 73°
2026-05-07 19:26 51.06411 4.62807 6571 ft 273 kts 73°
2026-05-07 19:27 51.06992 4.65667 6169 ft 271 kts 72°
2026-05-07 19:27 51.07570 4.68518 5775 ft 268 kts 72°
2026-05-07 19:27 51.08136 4.71320 5393 ft 265 kts 73°
2026-05-07 19:27 51.08695 4.74105 4997 ft 263 kts 72°
2026-05-07 19:28 51.09102 4.76903 4593 ft 259 kts 89°
2026-05-07 19:28 51.08698 4.79633 4281 ft 253 kts 120°
2026-05-07 19:28 51.07518 4.81581 4154 ft 240 kts 147°
2026-05-07 19:28 51.06093 4.82834 4010 ft 231 kts 152°
2026-05-07 19:29 51.04668 4.83973 3743 ft 228 kts 153°
2026-05-07 19:29 51.03186 4.84883 3444 ft 228 kts 164°
2026-05-07 19:29 51.01627 4.85163 3258 ft 222 kts 178°
2026-05-07 19:29 51.00154 4.84670 3122 ft 216 kts 210°
2026-05-07 19:30 50.98990 4.83252 3023 ft 208 kts 221°
2026-05-07 19:30 50.97943 4.81720 2895 ft 202 kts 223°
2026-05-07 19:30 50.96932 4.80208 2765 ft 197 kts 223°
2026-05-07 19:30 50.96271 4.79192 2679 ft 194 kts 228°
2026-05-07 19:31 50.95619 4.77364 2534 ft 190 kts 250°
2026-05-07 19:31 50.95172 4.75395 2338 ft 189 kts 250°
2026-05-07 19:31 50.94728 4.73433 2149 ft 189 kts 250°
2026-05-07 19:31 50.94281 4.71470 2046 ft 189 kts 250°
2026-05-07 19:32 50.93836 4.69516 2017 ft 188 kts 250°
2026-05-07 19:32 50.93390 4.67569 2029 ft 188 kts 250°
2026-05-07 19:32 50.92945 4.65621 1917 ft 188 kts 250°
2026-05-07 19:32 50.92499 4.63677 1696 ft 187 kts 250°
2026-05-07 19:33 50.92073 4.61818 1477 ft 167 kts 250°
2026-05-07 19:33 50.91697 4.60177 1240 ft 151 kts 250°
2026-05-07 19:33 50.91349 4.58664 1039 ft 142 kts 250°
2026-05-07 19:33 50.91016 4.57216 849 ft 138 kts 251°
2026-05-07 19:34 50.90690 4.55789 611 ft 136 kts 251°
2026-05-07 19:34 50.90368 4.54389 433 ft 135 kts 250°
2026-05-07 19:34 50.90046 4.52993 288 ft 135 kts 251°
2026-05-07 19:34 50.89735 4.51611 174 ft 125 kts 251°
2026-05-07 19:35 50.89514 4.50666 175 ft 49 kts 250°
2026-05-07 19:35 50.89421 4.50259 176 ft 39 kts 250°
2026-05-07 19:35 50.89336 4.49887 177 ft 31 kts 250°
2026-05-07 19:35 50.89383 4.49646 171 ft 23 kts 306°
2026-05-07 19:36 50.89454 4.49495 166 ft 13 kts 307°
2026-05-07 19:36 50.89499 4.49404 164 ft 0 kts 308°
2026-05-07 19:36 50.89501 4.49399 164 ft 1 kts 308°
2026-05-07 19:36 50.89510 4.49382 164 ft 3 kts 308°
2026-05-07 19:37 50.89528 4.49345 162 ft 6 kts 308°
2026-05-07 19:37 50.89563 4.49274 158 ft 11 kts 308°
2026-05-07 19:37 50.89617 4.49171 154 ft 13 kts 316°
2026-05-07 19:37 50.89720 4.49174 148 ft 19 kts 18°
2026-05-07 19:38 50.89863 4.49244 140 ft 24 kts
2026-05-07 19:38 50.90041 4.49306 128 ft 28 kts 14°
2026-05-07 19:38 50.90234 4.49384 123 ft 30 kts 14°
2026-05-07 19:38 50.90421 4.49462 124 ft 10 kts 15°
2026-05-07 19:39 50.90425 4.49463 124 ft 0 kts 11°
2026-05-07 19:39 50.90426 4.49460 124 ft 1 kts 343°
2026-05-07 19:39 50.90428 4.49432 122 ft 3 kts 272°
2026-05-07 19:39 50.90425 4.49405 124 ft 2 kts 255°
2026-05-07 19:40 50.90416 4.49327 124 ft 9 kts 284°
2026-05-07 19:40 50.90465 4.49268 120 ft 9 kts 336°
2026-05-07 19:40 50.90515 4.49230 123 ft 6 kts 335°
2026-05-07 19:40 50.90551 4.49204 122 ft 5 kts 335°
2026-05-07 19:41 50.90581 4.49183 121 ft 1 kts 335°
2026-05-07 19:41 50.90589 4.49177 121 ft 2 kts 335°
2026-05-07 19:41 50.90602 4.49167 121 ft 0 kts 335°
2026-05-07 19:41 50.90614 4.49158 119 ft 6 kts 335°
2026-05-07 19:42 50.90692 4.49100 120 ft 9 kts 326°
2026-05-07 19:42 50.90709 4.49023 119 ft 7 kts 259°
2026-05-07 19:42 50.90688 4.48953 116 ft 7 kts 247°
2026-05-07 19:42 50.90663 4.48860 119 ft 13 kts 246°
2026-05-07 19:43 50.90617 4.48703 118 ft 17 kts 245°
2026-05-07 19:43 50.90565 4.48519 119 ft 19 kts 246°
2026-05-07 19:43 50.90508 4.48324 117 ft 18 kts 244°
2026-05-07 19:43 50.90470 4.48193 118 ft 7 kts 245°
2026-05-07 19:44 50.90449 4.48122 119 ft 7 kts 245°
2026-05-07 19:44 50.90429 4.48055 120 ft 6 kts 240°
2026-05-07 19:44 50.90392 4.48035 120 ft 5 kts 177°
2026-05-07 19:44 50.90357 4.48030 120 ft 5 kts 200°
2026-05-07 19:45 50.90334 4.47994 119 ft 4 kts 239°
2026-05-07 19:45 50.90321 4.47953 118 ft 4 kts 244°
2026-05-07 19:45 50.90308 4.47908 116 ft 6 kts 245°
2026-05-07 19:45 50.90291 4.47850 118 ft 6 kts 246°
2026-05-07 19:46 50.90276 4.47797 121 ft 5 kts 246°
2026-05-07 19:46 50.90263 4.47749 118 ft 5 kts 246°
2026-05-07 19:46 50.90249 4.47700 118 ft 7 kts 246°
2026-05-07 19:46 50.90229 4.47628 120 ft 7 kts 245°
2026-05-07 19:47 50.90213 4.47586 119 ft 2 kts 230°
2026-05-07 19:47 50.90208 4.47581 120 ft 0 kts 214°
2026-05-07 19:47 50.90203 4.47579 119 ft 4 kts 198°
2026-05-07 19:48 50.90197 4.47580 120 ft 4 kts 179°
2026-05-07 19:48 50.90166 4.47594 121 ft 4 kts 158°
2026-05-07 19:48 50.90140 4.47613 119 ft 4 kts 154°
2026-05-07 19:48 50.90134 4.47618 121 ft 0 kts 154°